Location: *
(37.5724°S, 58.0067°E)
Time: 22:18:57
(UTC+00:00)

Cosmos 1943 Rocket - Pass Details

Date: 19 January 2021
Orbit: 810 x 845 km, 71.0° (Epoch: 25 February)

Event Time Altitude Azimuth Distance (km) Brightness Sun altitude
Rises 16:43:39 0° 214° (SW) 3,370 6.9 -13.2°
Reaches altitude 10° 16:46:22 10° 225° (SW) 2,427 6.0 -13.7°
Maximum altitude 16:51:04 29° 283° (WNW) 1,469 3.9 -14.4°
Drops below altitude 10° 16:55:42 10° 341° (NNW) 2,396 4.3 -15.1°
Enters shadow 16:57:55 - 350° (N) 3,149 4.9 -15.4°
